When you browse on this site, cookies collect data to enhance your experience and personalize the content and advertising you see.
Visit our Privacy Policy to learn more. By continuing to use the site, you agree to this use of cookies and data.
  • In Hungary
  • List of Countries
  • For 7 days
  • Water Temperature
  • Satellite Maps
  • Weather Map
  • News
  • Weather Widgets
  • user-avatar
    Login

    Hourly Weather Zminne

    Today, 20 May, Monday

    Time Temperature Precipitation Wind Pressure Humidity
    00:00 +17°C° 0 mm 4 mps 742 mmHg 95%
    01:00 +15°C° 0 mm 4 mps 741 mmHg 96%
    02:00 +15°C° 0 mm 4 mps 741 mmHg 96%
    03:00 +15°C° 0 mm 4 mps 741 mmHg 96%
    04:00 +15°C° 0 mm 4 mps 741 mmHg 97%
    05:00 +15°C° 0 mm 4 mps 741 mmHg 97%
    06:00 +16°C° 0 mm 5 mps 740 mmHg 94%
    07:00 +17°C° 0 mm 5 mps 740 mmHg 92%
    08:00 +19°C° 0 mm 6 mps 740 mmHg 89%
    09:00 +21°C° 0 mm 6 mps 740 mmHg 85%
    10:00 +22°C° 0 mm 6 mps 740 mmHg 81%
    11:00 +23°C° 0 mm 7 mps 741 mmHg 77%
    12:00 +23°C° 0.4 mm 7 mps 740 mmHg 75%
    13:00 +24°C° 0.4 mm 7 mps 740 mmHg 73%
    14:00 +26°C° 0.4 mm 7 mps 740 mmHg 71%
    15:00 +24°C° 1.3 mm 6 mps 740 mmHg 74%
    16:00 +25°C° 1.3 mm 5 mps 740 mmHg 76%
    17:00 +23°C° 1.3 mm 5 mps 740 mmHg 79%
    18:00 +22°C° 0.4 mm 4 mps 739 mmHg 83%
    19:00 +20°C° 0.4 mm 4 mps 739 mmHg 87%
    20:00 +19°C° 0.4 mm 4 mps 739 mmHg 91%
    21:00 +18°C° 0 mm 4 mps 739 mmHg 91%
    22:00 +18°C° 0 mm 4 mps 739 mmHg 92%
    23:00 +17°C° 0 mm 4 mps 739 mmHg 92%

    Tomorrow, 21 May, Tuesday

    Time Temperature Precipitation Wind Pressure Humidity
    00:00 +17°C° 0 mm 4 mps 739 mmHg 93%
    01:00 +17°C° 0 mm 3 mps 739 mmHg 95%
    02:00 +16°C° 0 mm 2 mps 739 mmHg 96%
    03:00 +16°C° 0.1 mm 2 mps 739 mmHg 96%
    04:00 +16°C° 0.1 mm 3 mps 739 mmHg 96%
    05:00 +16°C° 0.1 mm 3 mps 739 mmHg 96%
    06:00 +15°C° 0.1 mm 4 mps 739 mmHg 95%
    07:00 +17°C° 0.1 mm 4 mps 739 mmHg 93%
    08:00 +17°C° 0.1 mm 5 mps 739 mmHg 92%
    09:00 +17°C° 0.1 mm 5 mps 738 mmHg 87%
    10:00 +19°C° 0.1 mm 6 mps 738 mmHg 83%
    11:00 +20°C° 0.1 mm 6 mps 738 mmHg 78%
    12:00 +20°C° 0.4 mm 7 mps 738 mmHg 78%
    13:00 +20°C° 0.4 mm 7 mps 738 mmHg 77%
    14:00 +20°C° 0.4 mm 8 mps 737 mmHg 76%
    15:00 +18°C° 0.2 mm 8 mps 737 mmHg 78%
    16:00 +18°C° 0.2 mm 8 mps 737 mmHg 79%
    17:00 +17°C° 0.2 mm 8 mps 737 mmHg 81%
    18:00 +16°C° 0.1 mm 8 mps 737 mmHg 82%
    19:00 +15°C° 0.1 mm 8 mps 738 mmHg 84%
    20:00 +13°C° 0.1 mm 9 mps 738 mmHg 86%
    21:00 +13°C° 0.3 mm 8 mps 738 mmHg 87%
    22:00 +14°C° 0.3 mm 7 mps 739 mmHg 88%
    23:00 +12°C° 0.3 mm 7 mps 739 mmHg 89%

    Day after tomorrow, 22 May, Wednesday

    Time Temperature Precipitation Wind Pressure Humidity
    00:00 +13°C° 0.1 mm 6 mps 739 mmHg 91%
    01:00 +13°C° 0.1 mm 5 mps 739 mmHg 92%
    02:00 +13°C° 0.1 mm 5 mps 739 mmHg 93%
    03:00 +13°C° 0 mm 4 mps 739 mmHg 94%
    04:00 +12°C° 0 mm 4 mps 739 mmHg 95%
    05:00 +12°C° 0 mm 4 mps 739 mmHg 97%
    06:00 +13°C° 0 mm 4 mps 739 mmHg 94%
    07:00 +14°C° 0 mm 4 mps 740 mmHg 91%
    08:00 +15°C° 0 mm 4 mps 740 mmHg 88%
    09:00 +17°C° 0.1 mm 4 mps 740 mmHg 83%
    10:00 +17°C° 0.1 mm 5 mps 740 mmHg 79%
    11:00 +19°C° 0.1 mm 5 mps 740 mmHg 75%
    12:00 +20°C° 0.8 mm 5 mps 740 mmHg 75%
    13:00 +20°C° 0.8 mm 5 mps 740 mmHg 75%
    14:00 +20°C° 0.8 mm 5 mps 740 mmHg 75%
    15:00 +20°C° 0.7 mm 5 mps 740 mmHg 76%
    16:00 +19°C° 0.7 mm 4 mps 740 mmHg 77%
    17:00 +19°C° 0.7 mm 4 mps 740 mmHg 77%
    18:00 +18°C° 0.2 mm 4 mps 740 mmHg 81%
    19:00 +17°C° 0.2 mm 3 mps 740 mmHg 85%
    20:00 +16°C° 0.2 mm 3 mps 740 mmHg 89%
    21:00 +14°C° 0 mm 3 mps 740 mmHg 91%
    22:00 +14°C° 0 mm 3 mps 740 mmHg 92%
    23:00 +13°C° 0 mm 3 mps 740 mmHg 94%

    23 May, Thursday

    Time Temperature Precipitation Wind Pressure Humidity
    00:00 +13°C° 0.2 mm 4 mps 740 mmHg 94%
    01:00 +13°C° 0.2 mm 4 mps 740 mmHg 95%
    02:00 +13°C° 0.2 mm 4 mps 740 mmHg 95%
    03:00 +12°C° 0 mm 4 mps 740 mmHg 95%
    04:00 +12°C° 0 mm 3 mps 740 mmHg 96%
    05:00 +11°C° 0 mm 3 mps 740 mmHg 96%
    06:00 +12°C° 0 mm 3 mps 740 mmHg 93%
    07:00 +13°C° 0 mm 3 mps 740 mmHg 90%
    08:00 +14°C° 0 mm 3 mps 741 mmHg 87%
    09:00 +16°C° 0 mm 3 mps 741 mmHg 85%
    10:00 +17°C° 0 mm 3 mps 741 mmHg 82%
    11:00 +17°C° 0 mm 2 mps 741 mmHg 79%
    12:00 +18°C° 0.1 mm 2 mps 741 mmHg 79%
    13:00 +18°C° 0.1 mm 2 mps 741 mmHg 78%
    14:00 +18°C° 0.1 mm 2 mps 741 mmHg 78%
    15:00 +19°C° 0.2 mm 2 mps 741 mmHg 76%
    16:00 +19°C° 0.2 mm 2 mps 742 mmHg 74%
    17:00 +20°C° 0.2 mm 3 mps 742 mmHg 73%
    18:00 +19°C° 0.8 mm 3 mps 742 mmHg 79%
    19:00 +17°C° 0.8 mm 4 mps 742 mmHg 86%
    20:00 +15°C° 0.8 mm 5 mps 742 mmHg 92%
    21:00 +14°C° 0.1 mm 5 mps 743 mmHg 92%
    22:00 +13°C° 0.1 mm 6 mps 743 mmHg 92%
    23:00 +11°C° 0.1 mm 6 mps 743 mmHg 92%

    24 May, Friday

    Time Temperature Precipitation Wind Pressure Humidity
    00:00 +10°C° 0.1 mm 6 mps 743 mmHg 92%
    01:00 +10°C° 0.1 mm 6 mps 743 mmHg 92%
    02:00 +9°C° 0.1 mm 6 mps 743 mmHg 91%
    03:00 +9°C° 0.5 mm 5 mps 743 mmHg 92%
    04:00 +8°C° 0.5 mm 5 mps 743 mmHg 92%
    05:00 +8°C° 0.5 mm 4 mps 743 mmHg 93%
    06:00 +8°C° 0.6 mm 4 mps 743 mmHg 92%
    07:00 +10°C° 0.6 mm 4 mps 743 mmHg 91%
    08:00 +10°C° 0.6 mm 4 mps 744 mmHg 90%
    09:00 +11°C° 0.1 mm 4 mps 744 mmHg 87%
    10:00 +12°C° 0.1 mm 4 mps 744 mmHg 84%
    11:00 +14°C° 0.1 mm 4 mps 744 mmHg 81%
    12:00 +14°C° 0.1 mm 3 mps 743 mmHg 79%
    13:00 +16°C° 0.1 mm 3 mps 743 mmHg 77%
    14:00 +17°C° 0.1 mm 3 mps 743 mmHg 75%
    15:00 +17°C° 0.1 mm 3 mps 743 mmHg 75%
    16:00 +17°C° 0.1 mm 2 mps 742 mmHg 75%
    17:00 +18°C° 0.1 mm 2 mps 742 mmHg 76%
    18:00 +17°C° 0.1 mm 2 mps 742 mmHg 80%
    19:00 +16°C° 0.1 mm 1 mps 742 mmHg 84%
    20:00 +14°C° 0.1 mm 0 mps 742 mmHg 88%
    21:00 +14°C° 0 mm 1 mps 742 mmHg 89%
    22:00 +13°C° 0 mm 1 mps 742 mmHg 90%
    23:00 +12°C° 0 mm 1 mps 742 mmHg 91%

    25 May, Saturday

    Time Temperature Precipitation Wind Pressure Humidity
    00:00 +12°C° 0 mm 1 mps 742 mmHg 92%
    01:00 +12°C° 0 mm 1 mps 742 mmHg 93%
    02:00 +10°C° 0 mm 2 mps 742 mmHg 94%
    03:00 +10°C° 0 mm 2 mps 742 mmHg 94%
    04:00 +10°C° 0 mm 2 mps 742 mmHg 94%
    05:00 +9°C° 0 mm 2 mps 742 mmHg 94%
    06:00 +12°C° 0 mm 2 mps 742 mmHg 89%
    07:00 +13°C° 0 mm 2 mps 742 mmHg 84%
    08:00 +15°C° 0 mm 2 mps 742 mmHg 79%
    09:00 +16°C° 0 mm 2 mps 742 mmHg 72%
    10:00 +17°C° 0 mm 2 mps 742 mmHg 66%
    11:00 +19°C° 0 mm 2 mps 742 mmHg 60%
    12:00 +19°C° 0 mm 2 mps 742 mmHg 58%
    13:00 +20°C° 0 mm 3 mps 742 mmHg 57%
    14:00 +20°C° 0 mm 3 mps 742 mmHg 56%
    15:00 +20°C° 0 mm 3 mps 741 mmHg 57%
    16:00 +20°C° 0 mm 3 mps 741 mmHg 58%
    17:00 +20°C° 0 mm 4 mps 741 mmHg 59%
    18:00 +18°C° 0 mm 3 mps 741 mmHg 64%
    19:00 +17°C° 0 mm 3 mps 742 mmHg 69%
    20:00 +15°C° 0 mm 2 mps 742 mmHg 74%
    21:00 +14°C° 0 mm 2 mps 742 mmHg 73%
    22:00 +13°C° 0 mm 1 mps 742 mmHg 73%
    23:00 +12°C° 0 mm 1 mps 742 mmHg 72%
    Show more